{"data":{"norad_id":68891,"intl_designator":"2026-095AD","name":"KUIPER-00521","alt_names":[],"object_type":"PAYLOAD","status":"ACTIVE","operator":null,"country":"US","launch_date":"2026-04-28","launch_site_code":"AFETR","launch_vehicle":null,"mission":null,"orbit_class":"UNKNOWN","rcs_meters":null,"size_class":null,"mass_kg":null,"dimensions":null,"purposes":[],"wikipedia_slug":null,"has_3d_model":false,"image_url":null,"decayed_at":null,"tle_current":{"epoch":"2026-09-20T04:35:58.540992Z","epoch_age_seconds":42254,"freshness":"FRESH","line1":"1 68891U 26095AD  26263.19164978  .00002057  00000+0  29884-3 0  9995","line2":"2 68891  51.9024 171.8202 0000723  92.1202 267.9843 14.79928327 21941","mean_motion":14.79928327,"eccentricity":7.23e-5,"inclination_deg":51.9024,"raan_deg":171.8202,"arg_perigee_deg":92.1202,"mean_anomaly_deg":267.9843,"bstar":0.00029884,"rev_number":2194,"period_min":97.302009410081,"perigee_km":629.04372491921,"apogee_km":630.05703651446,"semimajor_km":7007.6873807168,"source":"CELESTRAK","updated_at":"2026-09-20T09:00:24.542541Z"}}}